SCP
0 0 0 0 0 0 0 0 0 0 0 0 0 0 0 0 0 0 0 0 0 0 0 0 0 0 0 0 0 0 0 0 0 0 0 0 0 0 0 0 0 0 0 0 0 0 0 0 0 0 0 0 0 0
0 0 0 0 0 0 0 0 0 0 0 0 0 0 0 0 0 0 0 0 0 0 0 0 0 0 0 0 0 0 0 0 0 0 0 0 0 0 0 0 0 0 0 0 0 0 0 0 0 0 0 0 0 0
0 0 0 0 0 0 0 0 0 0 0 0 0 0 0 0 0 0 0 0 0 0 0 0 0 0 0 0 0 0 0 0 0 0 0 0 0 0 0 0 0 0 0 0 0 0 0 0 0 0 0 0 0 0
0 0 0 0 0 0 0 0 0 0 0 0 0 0 0 0 0 0 0 0 0 0 0 0 0 0 0 0 0 0 0 0 0 0 0 0 0 0 0 0 0 0 0 0 0 0 0 0 0 0 0 0 0 0
0 0 0 0 0 0 0 0 0 0 0 0 0 0 0 0 0 0 0 0 0 0 0 0 0 0 0 0 0 0 0 0 0 0 0 0 -0 0 0 0 0 0 0 0 0 0 0 0 0 -0 0 0 0 0
0 0 0 0 0 0 0 0 0 0 0 0 0 0 0 0 0 0 0 0 0 0 0 0 0 0 0 0 0 0 0 0 0 0 0 0 0 0 0 0 0 0 0 0 0 0 0 0 0 0 0 0 0 0
0 0 0 0 0 0 0 0 0 0 0 0 0 0 0 0 0 0 0 0 0 0 0 0 0 0 0 0 0 0 0 0 0 0 0 0 0 0 0 0 0 0 0 0 0 0 0 0 0 0 0 0 0 0
0 0 0 0 0 0 0 0 0 0 0 0 0 0 0 0 0 0 0 0 0 0 0 0 0 0 0 0 0 0 0 0 0 0 0 0 0 0 0 0 0 0 0 0 0 0 0 0 0 0 0 0 0 0
0 0 0 0 0 0 0 0 0 0 0 0 0 0 0 0 0 0 0 0 0 0 0 0 0 0 0 0 0 0 0 0 0 0 0 0 0 0 0 0 0 0 0 0 0 0 0 0 0 0 0 0 0 0
0 0 0 0 0 0 0 0 0 0 0 0 0 0 0 0 0 0 0 0 0 0 0 0 0 0 0 0 0 0 0 0 0 0 0 0 0 0 0 -0 0 0 0 0 0 0 0 0 0 0 0 0 0 0
0 0 0 0 0 0 0 0 0 0 0 0 0 0 0 0 0 0 0 0 0 0 0 0 0 0 0 0 0 0 0 0 0 0 0 0 0 0 -0 -0 0 0 0 0 0 0 0 0 0 0 0 0 0 0
0 0 0 0 0 0 0 0 0 0 0 0 0 0 0 0 0 0 0 0 0 0 0 0 0 0 0 0 0 0 0 0 0 0 0 0 0 -0 0 0 0 0 0 0 0 0 0 0 0 0 0 0 0 0
0 0 0 0 0 0 0 0 0 0 0 0 0 0 0 0 0 0 0 0 0 0 0 0 0 0 0 0 0 0 0 0 0 0 0 0 0 0 0 0 0 0 0 0 0 0 0 0 0 0 0 0 0 0
0 0 0 0 0 0 0 0 0 0 0 0 0 0 0 0 0 0 0 0 0 0 0 0 0 0 0 0 0 0 0 0 0 0 0 0 0 0 0 0 0 0 0 0 0 0 0 0 0 0 0 0 0 0
0 0 0 0 0 0 0 0 0 0 0 0 0 0 0 0 0 0 0 0 0 0 0 0 0 0 0 0 0 0 0 0 0 0 0 0 0 0 0 0 0 0 0 0 0 0 0 0 0 0 0 0 0 0
0 0 0 0 0 0 0 0 0 0 0 0 0 0 0 0 0 0 0 0 0 0 0 0 0 0 0 0 0 0 0 0 0 0 0 0 0 0 0 0 0 0 0 0 0 0 0 0 0 0 0 0 0 0
0 0 0 0 0 0 0 0 0 0 0 0 0 0 0 0 0 0 0 0 0 0 0 0 0 0 0 0 0 0 0 0 0 0 0 0 0 0 0 0 0 0 0 0 0 0 0 0 0 0 0 0 0 0
0 0 0 0 0 0 0 0 0 0 0 0 0 0 0 0 0 0 0 0 0 0 0 0 0 0 0 0 0 0 0 0 0 0 0 0 0 0 0 0 0 0 0 0 0 0 0 0 0 0 0 0 0 0
0 0 0 0 0 0 0 0 0 0 0 0 0 0 0 0 0 0 0 0 0 0 0 0 0 0 0 0 0 0 0 0 0 0 0 0 0 0 0 0 0 0 0 0 0 0 0 0 0 0 0 0 0 0
0 0 0 0 0 0 0 0 0 0 0 0 0 0 0 0 0 0 0 0 0 0 0 0 0 0 0 0 0 0 0 0 0 0 0 0 0 0 0 0 0 0 0 0 0 0 0 0 0 0 0 0 0 0
0 0 0 0 0 0 0 0 0 0 0 0 0 0 0 0 0 0 0 0 0 0 0 0 0 0 0 0 0 0 0 0 0 0 0 0 0 0 0 0 0 0 0 0 0 0 0 0 0 0 0 0 0 0
0 0 0 0 0 0 0 0 0 0 0 0 0 0 0 0 0 0 0 0 0 0 0 0 0 0 0 0 0 0 0 0 0 0 0 0 0 0 0 0 0 0 0 0 0 0 0 0 0 0 0 0 0 0
0 0 0 0 0 0 0 0 0 0 0 0 0 0 0 0 0 0 0 0 0 0 0 0 0 0 0 0 0 0 0 0 0 0 0 0 0 0 0 0 0 0 0 0 0 0 0 0 0 0 0 0 0 0
0 0 0 0 0 0 0 0 0 0 0 0 0 0 0 0 0 0 0 0 0 0 0 0 0 0 0 0 0 0 0 0 0 0 0 0 0 0 0 0 0 0 0 0 0 0 0 0 0 0 0 0 0 0
0 0 0 0 0 0 0 0 0 0 0 0 0 -0 0 0 0 0 0 0 0 0 0 0 0 0 0 0 0 0 0 0 0 0 0 0 0 0 0 0 0 0 0 0 0 0 0 0 0 0 0 0 0 0
0 0 0 0 0 0 0 0 0 0 0 0 0 0 0 0 0 0 0 0 0 0 0 0 0 0 0 0 0 0 0 0 0 0 0 0 0 0 0 0 0 0 0 0 0 0 0 0 0 0 0 0 0 0
0 0 0 0 0 -0 0 0 -0 -0 -0 -0 0 0 0 0 0 0 0 0 0 0 0 0 0 0 0 0 0 0 0 0 0 0 0 0 0 0 0 0 0 0 0 0 0 0 0 0 0 0 0 0 0 0
0 0 0 0 -0 0 0 0 0 0 0 0 0 0 0 0 0 0 0 0 0 0 0 0 0 0 0 0 0 0 0 0 0 0 0 0 0 0 0 0 0 0 0 0 0 0 0 0 0 0 0 0 0 0
0 0 0 0 0 0 0 0 0 0 0 0 0 0 0 0 0 0 0 0 0 0 0 0 0 0 0 0 0 0 0 0 -0 -0 -0 -0 0 0 0 0 0 0 0 0 0 0 0 0 0 0 0 0 0 0
0 0 0 0 0 0 0 0 -0 -0 -0 0 0 0 0 0 0 0 0 0 0 0 0 0 -0 -0 0 0 -0 -0 -0 0 0 0 0 0 0 0 0 0 0 0 0 0 0 0 0 0 0 0 0 0 0 0
0 0 0 0 0 0 0 0 0 0 -0 -0 -0 -0 -0 -0 -0 -0 -0 0 0 0 0 0 0 0 0 -0 -0 -0 -0 -0 0 0 0 0 0 0 0 0 0 0 0 0 0 0 0 0 0 0 0 0 0 0
0 0 0 0 0 0 0 0 0 0 0 0 0 0 0 0 0 0 0 0 0 0 0 -0 -0 -0 -0 -0 -0 0 0 0 0 0 0 0 0 0 0 0 0 0 0 0 0 0 0 0 0 0 0 0 0 0
0 0 0 0 0 0 0 0 0 0 -0 0 0 0 0 0 0 0 0 0 -0 -0 -0 -0 -0 -0 -0 -0 -0 0 -0 0 -0 0 0 0 0 0 0 0 0 0 0 0 0 0 0 0 -0 0 0 0 0 0
Wind_Speed_500mb
51 52 57 63 58 50 40 33 28 25 22 22 20 18 15 12 9 6 8 18 9 7 10 16 22 32 25 18 7 18 6 4 4 2 0 6 6 6 7 9 14 10 9 5 7 6 7 34 18 7 6 8 17 29
52 52 52 53 57 60 46 37 33 30 26 25 23 21 18 16 10 4 11 6 13 12 13 12 16 10 7 12 13 18 10 18 15 6 9 6 7 3 9 2 4 5 12 11 11 11 15 30 27 28 20 4 29 29
54 48 51 52 51 58 51 46 43 35 30 29 27 25 21 20 14 13 5 9 3 9 20 19 13 11 6 5 7 11 10 13 8 12 7 4 4 7 3 4 11 12 9 7 12 6 35 32 33 41 28 27 21 19
54 54 50 51 51 54 48 44 42 35 32 29 28 26 23 23 20 17 16 5 5 8 8 4 12 13 14 18 6 3 11 14 14 12 3 1 3 9 5 6 3 7 7 7 6 21 37 33 33 34 26 21 17 19
56 57 49 48 50 56 59 45 39 35 36 32 29 24 24 26 24 19 18 11 8 7 10 12 10 17 21 21 9 6 10 13 10 7 4 5 8 3 8 6 7 10 8 6 7 15 16 21 20 19 20 17 17 23
55 59 53 48 48 50 54 48 43 33 35 32 28 22 22 25 21 14 5 8 20 12 5 6 11 19 23 17 12 13 9 8 8 5 5 9 3 1 2 3 7 24 28 10 16 23 16 5 4 9 10 9 9 30
55 55 52 53 52 51 50 46 38 38 34 31 25 20 22 24 26 21 6 10 24 18 3 9 7 20 17 13 17 19 16 15 10 10 11 16 15 5 2 4 23 27 25 22 2 11 12 6 6 6 11 14 27 26
53 54 52 55 51 47 46 44 36 32 25 19 17 19 21 23 25 19 1 13 21 16 8 6 7 11 23 14 10 26 19 21 10 9 6 8 19 12 6 12 24 31 32 26 24 13 16 12 13 12 17 28 28 24
50 48 48 54 53 52 44 36 32 24 14 15 22 20 17 19 16 14 10 6 22 10 5 8 5 7 20 19 21 21 18 5 15 16 14 9 6 8 10 20 28 24 28 17 12 12 11 12 21 20 26 29 27 22
51 51 45 49 49 48 40 34 30 19 20 33 36 12 8 19 18 15 7 7 13 9 10 11 17 5 23 20 13 14 10 4 5 12 22 9 12 37 33 42 26 14 8 9 10 9 11 16 25 22 35 32 30 30
54 51 48 43 48 43 40 37 29 28 45 43 13 3 21 31 17 7 12 15 16 10 15 17 22 9 24 13 10 18 10 6 6 9 11 7 7 42 57 57 46 36 26 11 18 18 16 13 13 25 30 37 38 40
47 49 51 47 44 45 40 35 30 58 33 17 15 21 33 11 10 10 8 10 12 10 18 27 36 19 12 7 2 16 4 4 7 8 9 5 7 32 26 31 43 39 29 28 27 23 24 26 28 21 21 43 48 47
42 51 52 54 47 40 34 31 61 45 29 20 16 13 11 13 4 11 12 8 8 12 19 27 21 16 1 6 2 5 7 7 18 3 4 5 9 16 22 24 22 19 11 8 14 22 28 30 25 29 27 41 48 41
47 54 48 40 38 36 32 51 42 23 19 8 13 1 9 7 9 8 9 10 18 24 31 33 28 16 11 4 6 5 7 3 6 6 12 2 8 24 24 20 17 10 4 9 16 20 23 25 29 33 37 46 43 37
41 41 38 37 37 33 45 53 34 19 6 8 9 9 11 20 25 34 33 32 34 24 27 19 15 11 9 5 8 4 6 9 11 11 4 27 32 27 22 18 12 6 4 8 13 14 15 14 17 32 37 36 33 29
42 37 36 36 34 38 50 43 29 9 2 5 6 6 16 20 30 29 35 12 16 34 26 8 4 6 4 5 9 8 5 5 3 15 29 25 23 19 14 11 6 2 6 5 7 11 11 22 13 31 38 38 34 31
37 27 41 36 37 43 42 29 15 3 5 5 10 19 23 24 16 4 1 10 13 13 3 3 5 8 7 4 3 3 6 4 32 32 27 23 23 19 12 10 9 6 9 8 9 10 11 12 12 31 39 36 33 31
27 33 38 41 44 49 37 18 9 7 8 15 11 17 11 12 18 6 7 12 18 9 11 4 1 1 3 3 5 10 31 31 28 28 25 19 18 16 13 12 11 9 8 2 2 6 4 2 11 22 32 34 32 32
34 41 43 44 47 30 14 17 10 5 12 19 19 10 8 14 11 13 14 6 12 7 5 8 2 3 2 15 21 27 32 29 26 18 10 9 8 7 8 8 10 12 12 11 6 5 8 9 11 18 28 35 38 44
44 45 46 45 33 18 8 9 15 5 8 13 15 12 9 9 5 6 8 2 3 4 2 2 4 21 18 21 18 21 20 17 19 19 20 18 7 5 3 8 12 12 6 9 18 18 23 27 22 28 31 21 30 43
48 49 39 32 24 5 6 11 15 10 8 8 18 19 9 10 11 4 3 3 2 2 3 6 17 12 12 11 7 5 9 11 10 15 20 21 14 12 14 14 14 18 22 24 29 33 30 23 26 12 20 26 19 14
31 51 40 30 7 4 5 9 8 10 11 6 5 16 11 13 12 13 14 15 16 22 21 22 24 24 16 7 6 6 9 12 18 21 21 25 31 27 26 28 31 37 40 39 39 41 41 42 29 35 33 33 33 38
33 35 25 14 12 12 9 10 10 9 8 10 9 9 10 10 17 17 10 18 24 26 26 26 26 17 14 13 10 10 16 22 26 31 34 36 38 39 39 40 43 43 43 44 46 47 46 42 43 37 40 42 45 57
10 8 6 11 18 9 10 8 9 7 8 9 9 9 15 16 19 15 9 27 26 34 23 10 13 11 11 12 16 12 13 17 20 24 24 22 27 33 35 36 35 36 35 34 35 39 46 48 42 40 42 43 37 40
5 8 8 11 9 16 15 15 13 10 7 16 14 4 9 16 6 9 14 11 12 26 21 11 6 2 5 9 9 10 14 17 15 17 23 24 33 38 36 37 40 34 29 38 45 41 40 47 45 43 44 44 35 43
6 9 10 7 5 2 3 6 12 8 6 14 10 21 15 5 7 7 7 12 15 16 12 9 4 2 5 10 15 17 24 32 34 36 38 37 42 46 52 59 65 69 62 54 46 45 45 38 37 37 44 46 38 38
5 4 11 12 8 4 5 3 7 5 4 3 3 3 6 9 6 5 11 11 11 7 7 7 8 9 14 17 20 25 29 31 32 37 41 42 44 46 52 57 63 65 60 63 69 74 69 55 43 37 35 41 47 36
19 12 2 5 13 4 3 6 5 6 8 8 3 4 1 4 4 10 9 7 12 13 11 12 12 14 12 12 19 23 26 29 34 39 41 49 59 63 66 58 58 59 56 57 64 65 67 72 73 63 52 47 35 43
7 8 6 11 8 9 6 5 5 4 1 2 2 4 4 7 12 10 8 7 8 8 9 13 13 11 11 12 19 23 36 30 38 47 51 58 60 46 42 46 46 44 45 49 54 58 61 58 54 53 55 61 61 43
5 7 2 6 4 4 5 8 17 14 11 7 8 8 6 6 12 12 9 8 6 11 9 9 9 12 17 19 27 30 29 34 34 34 41 47 51 52 55 49 43 46 46 44 43 41 38 44 60 68 64 66 71 74
3 2 3 6 5 12 19 17 13 10 8 11 10 9 6 7 9 11 9 6 5 2 7 11 10 11 19 23 24 27 27 26 30 35 37 42 48 53 55 53 53 55 56 56 50 53 47 51 49 47 63 65 54 55
6 8 5 6 9 14 16 13 8 4 4 5 7 7 8 6 4 6 4 6 2 7 9 12 14 16 20 23 26 30 34 43 55 42 40 45 51 49 43 48 52 55 49 49 51 45 39 47 46 41 40 45 52 50
8 10 8 7 10 12 12 10 9 7 7 7 7 8 6 5 8 8 2 3 8 6 11 16 15 16 15 21 29 26 31 39 36 28 41 50 57 49 47 54 51 42 38 37 42 40 37 30 28 30 37 31 42 37
Wind_Direction_500mb
215 216 217 219 221 222 226 228 235 247 257 252 253 254 257 267 282 312 357 9 14 284 321 4 20 28 27 33 28 334 60 28 52 78 133 272 251 219 29 120 153 155 136 163 91 97 262 246 259 101 182 333 332 101
216 214 218 218 219 220 223 224 229 246 260 264 250 248 246 245 249 222 112 7 338 269 262 326 350 356 47 38 1 360 61 40 24 33 15 336 349 43 44 359 165 115 191 164 165 196 173 146 153 168 157 79 105 97
215 213 216 217 218 216 216 223 233 243 252 264 263 248 244 235 235 227 203 332 14 307 319 279 296 226 350 338 322 29 41 21 43 14 316 290 354 36 45 236 8 32 120 97 70 91 149 162 159 155 138 119 111 102
212 213 218 221 219 210 211 221 227 233 244 263 272 253 243 229 230 234 229 272 70 338 281 264 220 245 280 266 294 334 290 293 336 343 303 321 13 337 300 259 171 188 132 162 118 33 85 90 104 128 122 116 116 130
212 211 213 214 210 207 210 216 226 235 252 260 276 258 235 221 224 231 234 216 125 349 326 308 261 229 245 271 241 232 284 295 316 327 324 270 245 336 299 8 321 29 171 111 190 117 97 56 137 143 143 157 164 164
199 201 206 207 207 209 211 219 223 236 247 265 265 252 225 211 208 204 166 197 206 198 284 291 301 182 206 236 206 211 249 292 243 269 267 277 268 33 318 204 264 14 15 78 131 127 142 154 75 129 129 167 169 142
193 193 200 202 201 204 205 210 215 232 246 263 251 228 207 198 190 184 192 198 194 180 218 274 243 204 215 214 222 227 226 245 274 269 238 268 280 255 243 221 299 323 327 326 332 183 139 172 243 269 241 177 154 147
190 195 199 199 196 198 196 200 209 226 241 238 219 196 195 194 190 205 145 178 188 186 223 263 255 169 190 196 212 216 223 215 231 244 256 263 286 201 239 214 265 288 300 288 282 248 192 186 215 227 175 159 151 142
189 188 194 190 192 193 199 194 207 218 227 190 169 166 170 183 170 199 194 219 184 188 270 240 245 193 183 206 201 190 212 221 229 203 221 257 237 221 220 230 242 253 279 271 278 194 180 193 223 207 187 166 165 171
184 181 177 174 174 180 188 200 208 213 173 156 147 149 175 174 147 154 161 162 183 223 239 252 270 245 178 193 204 159 160 219 288 219 218 199 240 249 247 257 264 220 330 226 227 229 219 227 217 222 199 196 184 197
180 181 182 185 187 188 192 204 205 174 157 154 156 186 154 151 147 178 192 194 194 220 213 230 255 288 200 171 206 200 172 218 207 246 146 227 233 233 240 243 245 233 238 254 219 235 246 263 257 227 219 211 195 198
176 183 184 184 187 184 191 197 191 165 158 165 135 135 136 169 197 206 206 210 195 212 192 194 213 219 273 205 247 183 184 250 256 190 152 230 256 276 278 240 234 227 226 232 239 253 249 246 253 265 240 206 189 183
183 187 179 181 178 185 194 196 171 158 168 157 158 166 191 181 164 203 194 195 200 197 189 179 185 189 199 132 285 278 168 229 302 243 239 195 285 34 213 157 152 151 175 255 280 263 261 244 242 249 236 202 185 182
173 164 159 163 178 180 180 165 156 158 158 180 181 99 192 223 220 209 221 203 209 205 162 180 187 186 132 132 257 249 211 207 257 200 204 194 347 145 130 113 114 135 209 236 267 263 264 249 241 240 196 192 185 182
145 153 158 167 169 169 168 169 165 154 157 247 200 196 203 233 237 223 226 235 231 203 181 187 193 172 142 188 189 275 217 212 206 223 68 74 94 101 100 107 109 123 244 339 262 278 257 273 194 179 179 181 187 191
151 156 168 161 162 170 174 170 164 141 257 255 267 281 225 222 257 228 237 158 121 156 179 195 119 127 200 222 191 227 213 257 301 97 98 85 74 72 68 71 88 219 300 268 280 297 276 240 244 205 186 190 196 205
146 156 156 157 160 168 167 161 160 237 267 239 244 263 289 293 269 148 121 93 153 139 121 217 177 164 269 219 238 295 246 79 108 98 102 94 82 63 52 51 20 352 303 303 311 306 320 298 243 206 185 191 199 199
146 155 152 149 150 157 162 165 197 225 242 238 268 270 350 28 26 130 167 127 165 217 235 292 91 50 252 243 84 23 66 91 99 102 95 88 84 73 71 63 43 24 27 320 299 291 303 312 208 203 202 196 197 206
159 150 148 149 146 148 151 190 199 254 235 244 275 319 353 18 44 72 82 96 47 57 350 347 78 141 351 62 48 40 35 33 33 100 65 5 56 76 70 41 12 350 337 318 316 269 260 266 273 241 232 227 232 237
163 150 153 152 148 153 143 159 197 274 267 235 233 247 209 207 161 144 135 178 23 20 21 318 347 55 67 57 57 55 34 17 21 18 38 42 48 38 3 344 315 324 309 306 308 308 281 285 283 286 273 259 245 231
163 155 166 158 169 135 189 170 178 219 260 250 215 207 211 200 210 193 200 204 314 247 259 269 304 349 14 352 353 31 25 348 352 349 343 323 331 321 310 289 311 307 305 306 301 297 298 284 256 289 272 252 227 223
161 164 162 170 183 300 274 211 182 208 216 176 212 184 209 231 231 207 229 234 224 239 256 270 283 300 318 351 357 325 260 308 292 287 287 299 303 299 292 294 294 294 291 292 294 302 301 297 299 267 257 257 267 258
134 157 168 185 212 210 259 202 204 213 198 177 179 209 205 208 215 206 226 236 236 231 237 246 247 257 264 269 283 292 300 290 280 285 289 289 287 289 291 291 290 291 291 284 283 286 288 288 287 288 279 278 275 255
150 195 219 198 199 191 175 199 202 213 184 201 173 209 202 200 177 185 213 224 223 219 217 214 215 229 264 278 276 317 331 314 307 305 302 307 315 308 296 301 309 300 297 303 300 289 285 283 282 284 268 270 265 265
226 226 209 236 221 193 179 174 181 199 193 198 198 142 239 171 184 207 208 113 90 106 116 140 115 160 277 290 297 297 319 320 327 300 290 290 302 295 289 284 283 287 307 313 301 296 303 294 278 273 273 265 257 262
234 215 205 227 224 211 251 205 189 196 158 201 191 167 196 213 193 64 63 73 118 109 97 70 50 355 280 293 308 292 278 283 285 291 287 280 287 292 292 290 286 279 272 275 282 288 287 289 290 289 287 270 286 260
269 249 206 195 196 201 277 301 351 355 118 312 351 32 147 190 113 122 131 85 131 176 243 273 286 267 265 273 286 291 293 298 299 296 296 298 298 301 299 295 293 294 293 284 276 273 278 280 272 275 275 278 267 269
208 230 66 19 128 141 95 41 63 41 41 12 9 117 114 54 110 152 163 211 263 265 295 300 292 293 294 304 319 321 315 307 301 296 289 289 294 299 301 299 293 292 291 285 276 276 273 270 269 259 257 261 273 277
360 3 18 51 69 65 55 53 97 87 60 99 64 76 113 128 134 156 181 230 286 314 314 313 310 308 319 297 321 335 334 323 318 312 310 308 312 323 326 319 319 318 307 293 281 276 270 264 255 251 252 260 257 259
38 19 105 87 68 90 80 91 108 109 88 86 116 126 134 172 191 190 208 228 277 299 312 331 344 334 320 312 308 319 331 327 328 323 319 316 313 310 312 313 304 308 310 297 298 301 301 284 263 254 253 249 249 251
324 20 73 69 89 138 136 137 140 138 118 98 88 116 133 137 163 197 204 232 265 42 353 335 314 307 305 309 311 319 331 355 349 338 329 325 322 318 315 314 313 309 303 298 289 295 286 287 283 274 254 243 244 245
185 221 186 142 146 158 158 177 188 153 162 181 148 123 153 187 191 197 213 197 307 299 304 324 318 315 312 315 313 316 307 315 323 320 339 344 342 332 323 322 317 312 304 310 298 287 290 286 274 274 251 238 235 232
200 226 201 145 143 172 181 183 177 155 190 189 178 184 183 187 171 171 233 231 278 327 315 316 322 317 337 333 325 327 324 328 337 333 347 348 345 337 328 326 322 324 320 323 318 306 294 281 263 260 225 229 222 214
Wind_Speed_850mb
51 52 57 63 58 50 40 33 28 25 22 22 20 18 15 12 9 6 8 18 9 7 10 16 22 32 25 18 7 18 6 4 4 2 0 6 6 6 7 9 14 10 9 5 7 6 7 34 18 7 6 8 17 29
52 52 52 53 57 60 46 37 33 30 26 25 23 21 18 16 10 4 11 6 13 12 13 12 16 10 7 12 13 18 10 18 15 6 9 6 7 3 9 2 4 5 12 11 11 11 15 30 27 28 20 4 29 29
54 48 51 52 51 58 51 46 43 35 30 29 27 25 21 20 14 13 5 9 3 9 20 19 13 11 6 5 7 11 10 13 8 12 7 4 4 7 3 4 11 12 9 7 12 6 35 32 33 41 28 27 21 19
54 54 50 51 51 54 48 44 42 35 32 29 28 26 23 23 20 17 16 5 5 8 8 4 12 13 14 18 6 3 11 14 14 12 3 1 3 9 5 6 3 7 7 7 6 21 37 33 33 34 26 21 17 19
56 57 49 48 50 56 59 45 39 35 36 32 29 24 24 26 24 19 18 11 8 7 10 12 10 17 21 21 9 6 10 13 10 7 4 5 8 3 8 6 7 10 8 6 7 15 16 21 20 19 20 17 17 23
55 59 53 48 48 50 54 48 43 33 35 32 28 22 22 25 21 14 5 8 20 12 5 6 11 19 23 17 12 13 9 8 8 5 5 9 3 1 2 3 7 24 28 10 16 23 16 5 4 9 10 9 9 30
55 55 52 53 52 51 50 46 38 38 34 31 25 20 22 24 26 21 6 10 24 18 3 9 7 20 17 13 17 19 16 15 10 10 11 16 15 5 2 4 23 27 25 22 2 11 12 6 6 6 11 14 27 26
53 54 52 55 51 47 46 44 36 32 25 19 17 19 21 23 25 19 1 13 21 16 8 6 7 11 23 14 10 26 19 21 10 9 6 8 19 12 6 12 24 31 32 26 24 13 16 12 13 12 17 28 28 24
50 48 48 54 53 52 44 36 32 24 14 15 22 20 17 19 16 14 10 6 22 10 5 8 5 7 20 19 21 21 18 5 15 16 14 9 6 8 10 20 28 24 28 17 12 12 11 12 21 20 26 29 27 22
51 51 45 49 49 48 40 34 30 19 20 33 36 12 8 19 18 15 7 7 13 9 10 11 17 5 23 20 13 14 10 4 5 12 22 9 12 37 33 42 26 14 8 9 10 9 11 16 25 22 35 32 30 30
54 51 48 43 48 43 40 37 29 28 45 43 13 3 21 31 17 7 12 15 16 10 15 17 22 9 24 13 10 18 10 6 6 9 11 7 7 42 57 57 46 36 26 11 18 18 16 13 13 25 30 37 38 40
47 49 51 47 44 45 40 35 30 58 33 17 15 21 33 11 10 10 8 10 12 10 18 27 36 19 12 7 2 16 4 4 7 8 9 5 7 32 26 31 43 39 29 28 27 23 24 26 28 21 21 43 48 47
42 51 52 54 47 40 34 31 61 45 29 20 16 13 11 13 4 11 12 8 8 12 19 27 21 16 1 6 2 5 7 7 18 3 4 5 9 16 22 24 22 19 11 8 14 22 28 30 25 29 27 41 48 41
47 54 48 40 38 36 32 51 42 23 19 8 13 1 9 7 9 8 9 10 18 24 31 33 28 16 11 4 6 5 7 3 6 6 12 2 8 24 24 20 17 10 4 9 16 20 23 25 29 33 37 46 43 37
41 41 38 37 37 33 45 53 34 19 6 8 9 9 11 20 25 34 33 32 34 24 27 19 15 11 9 5 8 4 6 9 11 11 4 27 32 27 22 18 12 6 4 8 13 14 15 14 17 32 37 36 33 29
42 37 36 36 34 38 50 43 29 9 2 5 6 6 16 20 30 29 35 12 16 34 26 8 4 6 4 5 9 8 5 5 3 15 29 25 23 19 14 11 6 2 6 5 7 11 11 22 13 31 38 38 34 31
37 27 41 36 37 43 42 29 15 3 5 5 10 19 23 24 16 4 1 10 13 13 3 3 5 8 7 4 3 3 6 4 32 32 27 23 23 19 12 10 9 6 9 8 9 10 11 12 12 31 39 36 33 31
27 33 38 41 44 49 37 18 9 7 8 15 11 17 11 12 18 6 7 12 18 9 11 4 1 1 3 3 5 10 31 31 28 28 25 19 18 16 13 12 11 9 8 2 2 6 4 2 11 22 32 34 32 32
34 41 43 44 47 30 14 17 10 5 12 19 19 10 8 14 11 13 14 6 12 7 5 8 2 3 2 15 21 27 32 29 26 18 10 9 8 7 8 8 10 12 12 11 6 5 8 9 11 18 28 35 38 44
44 45 46 45 33 18 8 9 15 5 8 13 15 12 9 9 5 6 8 2 3 4 2 2 4 21 18 21 18 21 20 17 19 19 20 18 7 5 3 8 12 12 6 9 18 18 23 27 22 28 31 21 30 43
48 49 39 32 24 5 6 11 15 10 8 8 18 19 9 10 11 4 3 3 2 2 3 6 17 12 12 11 7 5 9 11 10 15 20 21 14 12 14 14 14 18 22 24 29 33 30 23 26 12 20 26 19 14
31 51 40 30 7 4 5 9 8 10 11 6 5 16 11 13 12 13 14 15 16 22 21 22 24 24 16 7 6 6 9 12 18 21 21 25 31 27 26 28 31 37 40 39 39 41 41 42 29 35 33 33 33 38
33 35 25 14 12 12 9 10 10 9 8 10 9 9 10 10 17 17 10 18 24 26 26 26 26 17 14 13 10 10 16 22 26 31 34 36 38 39 39 40 43 43 43 44 46 47 46 42 43 37 40 42 45 57
10 8 6 11 18 9 10 8 9 7 8 9 9 9 15 16 19 15 9 27 26 34 23 10 13 11 11 12 16 12 13 17 20 24 24 22 27 33 35 36 35 36 35 34 35 39 46 48 42 40 42 43 37 40
5 8 8 11 9 16 15 15 13 10 7 16 14 4 9 16 6 9 14 11 12 26 21 11 6 2 5 9 9 10 14 17 15 17 23 24 33 38 36 37 40 34 29 38 45 41 40 47 45 43 44 44 35 43
6 9 10 7 5 2 3 6 12 8 6 14 10 21 15 5 7 7 7 12 15 16 12 9 4 2 5 10 15 17 24 32 34 36 38 37 42 46 52 59 65 69 62 54 46 45 45 38 37 37 44 46 38 38
5 4 11 12 8 4 5 3 7 5 4 3 3 3 6 9 6 5 11 11 11 7 7 7 8 9 14 17 20 25 29 31 32 37 41 42 44 46 52 57 63 65 60 63 69 74 69 55 43 37 35 41 47 36
19 12 2 5 13 4 3 6 5 6 8 8 3 4 1 4 4 10 9 7 12 13 11 12 12 14 12 12 19 23 26 29 34 39 41 49 59 63 66 58 58 59 56 57 64 65 67 72 73 63 52 47 35 43
7 8 6 11 8 9 6 5 5 4 1 2 2 4 4 7 12 10 8 7 8 8 9 13 13 11 11 12 19 23 36 30 38 47 51 58 60 46 42 46 46 44 45 49 54 58 61 58 54 53 55 61 61 43
5 7 2 6 4 4 5 8 17 14 11 7 8 8 6 6 12 12 9 8 6 11 9 9 9 12 17 19 27 30 29 34 34 34 41 47 51 52 55 49 43 46 46 44 43 41 38 44 60 68 64 66 71 74
3 2 3 6 5 12 19 17 13 10 8 11 10 9 6 7 9 11 9 6 5 2 7 11 10 11 19 23 24 27 27 26 30 35 37 42 48 53 55 53 53 55 56 56 50 53 47 51 49 47 63 65 54 55
6 8 5 6 9 14 16 13 8 4 4 5 7 7 8 6 4 6 4 6 2 7 9 12 14 16 20 23 26 30 34 43 55 42 40 45 51 49 43 48 52 55 49 49 51 45 39 47 46 41 40 45 52 50
8 10 8 7 10 12 12 10 9 7 7 7 7 8 6 5 8 8 2 3 8 6 11 16 15 16 15 21 29 26 31 39 36 28 41 50 57 49 47 54 51 42 38 37 42 40 37 30 28 30 37 31 42 37
Wind_Direction_850mb
215 216 217 219 221 222 226 228 235 247 257 252 253 254 257 267 282 312 357 9 14 284 321 4 20 28 27 33 28 334 60 28 52 78 133 272 251 219 29 120 153 155 136 163 91 97 262 246 259 101 182 333 332 101
216 214 218 218 219 220 223 224 229 246 260 264 250 248 246 245 249 222 112 7 338 269 262 326 350 356 47 38 1 360 61 40 24 33 15 336 349 43 44 359 165 115 191 164 165 196 173 146 153 168 157 79 105 97
215 213 216 217 218 216 216 223 233 243 252 264 263 248 244 235 235 227 203 332 14 307 319 279 296 226 350 338 322 29 41 21 43 14 316 290 354 36 45 236 8 32 120 97 70 91 149 162 159 155 138 119 111 102
212 213 218 221 219 210 211 221 227 233 244 263 272 253 243 229 230 234 229 272 70 338 281 264 220 245 280 266 294 334 290 293 336 343 303 321 13 337 300 259 171 188 132 162 118 33 85 90 104 128 122 116 116 130
212 211 213 214 210 207 210 216 226 235 252 260 276 258 235 221 224 231 234 216 125 349 326 308 261 229 245 271 241 232 284 295 316 327 324 270 245 336 299 8 321 29 171 111 190 117 97 56 137 143 143 157 164 164
199 201 206 207 207 209 211 219 223 236 247 265 265 252 225 211 208 204 166 197 206 198 284 291 301 182 206 236 206 211 249 292 243 269 267 277 268 33 318 204 264 14 15 78 131 127 142 154 75 129 129 167 169 142
193 193 200 202 201 204 205 210 215 232 246 263 251 228 207 198 190 184 192 198 194 180 218 274 243 204 215 214 222 227 226 245 274 269 238 268 280 255 243 221 299 323 327 326 332 183 139 172 243 269 241 177 154 147
190 195 199 199 196 198 196 200 209 226 241 238 219 196 195 194 190 205 145 178 188 186 223 263 255 169 190 196 212 216 223 215 231 244 256 263 286 201 239 214 265 288 300 288 282 248 192 186 215 227 175 159 151 142
189 188 194 190 192 193 199 194 207 218 227 190 169 166 170 183 170 199 194 219 184 188 270 240 245 193 183 206 201 190 212 221 229 203 221 257 237 221 220 230 242 253 279 271 278 194 180 193 223 207 187 166 165 171
184 181 177 174 174 180 188 200 208 213 173 156 147 149 175 174 147 154 161 162 183 223 239 252 270 245 178 193 204 159 160 219 288 219 218 199 240 249 247 257 264 220 330 226 227 229 219 227 217 222 199 196 184 197
180 181 182 185 187 188 192 204 205 174 157 154 156 186 154 151 147 178 192 194 194 220 213 230 255 288 200 171 206 200 172 218 207 246 146 227 233 233 240 243 245 233 238 254 219 235 246 263 257 227 219 211 195 198
176 183 184 184 187 184 191 197 191 165 158 165 135 135 136 169 197 206 206 210 195 212 192 194 213 219 273 205 247 183 184 250 256 190 152 230 256 276 278 240 234 227 226 232 239 253 249 246 253 265 240 206 189 183
183 187 179 181 178 185 194 196 171 158 168 157 158 166 191 181 164 203 194 195 200 197 189 179 185 189 199 132 285 278 168 229 302 243 239 195 285 34 213 157 152 151 175 255 280 263 261 244 242 249 236 202 185 182
173 164 159 163 178 180 180 165 156 158 158 180 181 99 192 223 220 209 221 203 209 205 162 180 187 186 132 132 257 249 211 207 257 200 204 194 347 145 130 113 114 135 209 236 267 263 264 249 241 240 196 192 185 182
145 153 158 167 169 169 168 169 165 154 157 247 200 196 203 233 237 223 226 235 231 203 181 187 193 172 142 188 189 275 217 212 206 223 68 74 94 101 100 107 109 123 244 339 262 278 257 273 194 179 179 181 187 191
151 156 168 161 162 170 174 170 164 141 257 255 267 281 225 222 257 228 237 158 121 156 179 195 119 127 200 222 191 227 213 257 301 97 98 85 74 72 68 71 88 219 300 268 280 297 276 240 244 205 186 190 196 205
146 156 156 157 160 168 167 161 160 237 267 239 244 263 289 293 269 148 121 93 153 139 121 217 177 164 269 219 238 295 246 79 108 98 102 94 82 63 52 51 20 352 303 303 311 306 320 298 243 206 185 191 199 199
146 155 152 149 150 157 162 165 197 225 242 238 268 270 350 28 26 130 167 127 165 217 235 292 91 50 252 243 84 23 66 91 99 102 95 88 84 73 71 63 43 24 27 320 299 291 303 312 208 203 202 196 197 206
159 150 148 149 146 148 151 190 199 254 235 244 275 319 353 18 44 72 82 96 47 57 350 347 78 141 351 62 48 40 35 33 33 100 65 5 56 76 70 41 12 350 337 318 316 269 260 266 273 241 232 227 232 237
163 150 153 152 148 153 143 159 197 274 267 235 233 247 209 207 161 144 135 178 23 20 21 318 347 55 67 57 57 55 34 17 21 18 38 42 48 38 3 344 315 324 309 306 308 308 281 285 283 286 273 259 245 231
163 155 166 158 169 135 189 170 178 219 260 250 215 207 211 200 210 193 200 204 314 247 259 269 304 349 14 352 353 31 25 348 352 349 343 323 331 321 310 289 311 307 305 306 301 297 298 284 256 289 272 252 227 223
161 164 162 170 183 300 274 211 182 208 216 176 212 184 209 231 231 207 229 234 224 239 256 270 283 300 318 351 357 325 260 308 292 287 287 299 303 299 292 294 294 294 291 292 294 302 301 297 299 267 257 257 267 258
134 157 168 185 212 210 259 202 204 213 198 177 179 209 205 208 215 206 226 236 236 231 237 246 247 257 264 269 283 292 300 290 280 285 289 289 287 289 291 291 290 291 291 284 283 286 288 288 287 288 279 278 275 255
150 195 219 198 199 191 175 199 202 213 184 201 173 209 202 200 177 185 213 224 223 219 217 214 215 229 264 278 276 317 331 314 307 305 302 307 315 308 296 301 309 300 297 303 300 289 285 283 282 284 268 270 265 265
226 226 209 236 221 193 179 174 181 199 193 198 198 142 239 171 184 207 208 113 90 106 116 140 115 160 277 290 297 297 319 320 327 300 290 290 302 295 289 284 283 287 307 313 301 296 303 294 278 273 273 265 257 262
234 215 205 227 224 211 251 205 189 196 158 201 191 167 196 213 193 64 63 73 118 109 97 70 50 355 280 293 308 292 278 283 285 291 287 280 287 292 292 290 286 279 272 275 282 288 287 289 290 289 287 270 286 260
269 249 206 195 196 201 277 301 351 355 118 312 351 32 147 190 113 122 131 85 131 176 243 273 286 267 265 273 286 291 293 298 299 296 296 298 298 301 299 295 293 294 293 284 276 273 278 280 272 275 275 278 267 269
208 230 66 19 128 141 95 41 63 41 41 12 9 117 114 54 110 152 163 211 263 265 295 300 292 293 294 304 319 321 315 307 301 296 289 289 294 299 301 299 293 292 291 285 276 276 273 270 269 259 257 261 273 277
360 3 18 51 69 65 55 53 97 87 60 99 64 76 113 128 134 156 181 230 286 314 314 313 310 308 319 297 321 335 334 323 318 312 310 308 312 323 326 319 319 318 307 293 281 276 270 264 255 251 252 260 257 259
38 19 105 87 68 90 80 91 108 109 88 86 116 126 134 172 191 190 208 228 277 299 312 331 344 334 320 312 308 319 331 327 328 323 319 316 313 310 312 313 304 308 310 297 298 301 301 284 263 254 253 249 249 251
324 20 73 69 89 138 136 137 140 138 118 98 88 116 133 137 163 197 204 232 265 42 353 335 314 307 305 309 311 319 331 355 349 338 329 325 322 318 315 314 313 309 303 298 289 295 286 287 283 274 254 243 244 245
185 221 186 142 146 158 158 177 188 153 162 181 148 123 153 187 191 197 213 197 307 299 304 324 318 315 312 315 313 316 307 315 323 320 339 344 342 332 323 322 317 312 304 310 298 287 290 286 274 274 251 238 235 232
200 226 201 145 143 172 181 183 177 155 190 189 178 184 183 187 171 171 233 231 278 327 315 316 322 317 337 333 325 327 324 328 337 333 347 348 345 337 328 326 322 324 320 323 318 306 294 281 263 260 225 229 222 214